Wind from 137 at 9 knots gusting 18

Air temperature 1.7° C
Dewpoint 0.1° C

Last reported at 2014-Apr-23 14:41 UTC.
Time now 2014-Apr-23 15:18 UTC

Location: N 48°02' W 053°13'.
View on Google Maps.

See reports from other nearby stations

Tides Stations Pressure Air Temp Water Temp Dewpoint Dewpoint depression Visibility Wind Speed Wind Dir Waves Ship positions

  
sailing weather and tide predictions

CW5193 New Chelsea NF CA weather

date/time (UTC)wind fromknots sea level pressurealtimeterstation pressurevisibilityair tempwater tempwave heightnotes
2014-Apr-23 14:41 137 9 gusting 18 1.7
2014-Apr-23 14:31 104 13 gusting 20 1.7
2014-Apr-23 14:21 109 11 gusting 19 1.7
2014-Apr-23 14:11 090 13 gusting 18 1.7
2014-Apr-23 14:01 116 9 gusting 15 1.7
2014-Apr-23 13:51 123 10 gusting 16 1.7
2014-Apr-23 13:41 105 13 gusting 19 1.1
2014-Apr-23 13:31 110 11 gusting 17 1.7
2014-Apr-23 13:21 095 12 gusting 18 1.7
2014-Apr-23 13:11 144 8 gusting 19 1.1
2014-Apr-23 13:01 117 7 gusting 16 1.1
2014-Apr-23 12:51 113 8 gusting 16 1.1
2014-Apr-23 12:41 097 11 gusting 16 0.6
2014-Apr-23 12:31 109 10 gusting 18 0.6
2014-Apr-23 12:21 121 11 gusting 17 0.6
2014-Apr-23 12:11 144 9 gusting 16 1.1
2014-Apr-23 12:01 106 9 gusting 14 0.6
2014-Apr-23 11:51 115 6 gusting 13 0.6
2014-Apr-23 11:41 124 7 gusting 17 0.6
2014-Apr-23 11:31 107 8 gusting 16 0.6
2014-Apr-23 11:21 123 8 gusting 14 1.1
2014-Apr-23 11:11 161 5 gusting 13 1.1
2014-Apr-23 11:01 124 6 gusting 12 1.1
2014-Apr-23 10:51 103 1 gusting 9 1.1
2014-Apr-23 10:41 106 6 gusting 13 0.6
2014-Apr-23 10:31 096 2 gusting 12 0.6
2014-Apr-23 10:21 119 3 gusting 15 0.6
2014-Apr-23 10:11 131 4 gusting 12 1.1
2014-Apr-23 10:01 141 4 gusting 11 1.1
2014-Apr-23 09:51 194 4 gusting 9 1.1
2014-Apr-23 09:41 109 2 gusting 9 1.1
2014-Apr-23 09:31 119 0 gusting 13 1.1
2014-Apr-23 09:21 085 5 gusting 13 1.1
2014-Apr-23 09:11 118 4 gusting 13 1.7
2014-Apr-23 09:01 128 5 gusting 10 1.7
2014-Apr-23 08:51 126 5 gusting 7 1.7
2014-Apr-23 08:41 095 3 gusting 7 1.7
2014-Apr-23 08:31 069 2 gusting 5 1.7
2014-Apr-23 08:21 115 1.7
2014-Apr-23 08:11 115 0 gusting 3 1.7
2014-Apr-23 08:01 115 0 gusting 4 1.7
2014-Apr-23 07:51 109 4 gusting 6 1.7
2014-Apr-23 07:41 115 0 gusting 8 1.7
2014-Apr-23 07:31 119 3 gusting 6 1.1
2014-Apr-23 07:21 129 0 gusting 2 1.1
2014-Apr-23 07:11 129 0 gusting 2 1.1
2014-Apr-23 07:01 129 1.1
2014-Apr-23 06:51 129 1.1
2014-Apr-23 06:41 129 0 gusting 5 1.1
2014-Apr-23 06:31 128 3 gusting 6 0.6
2014-Apr-23 06:21 124 3 gusting 5 0.6
2014-Apr-23 06:11 123 4 gusting 8 1.1
2014-Apr-23 06:01 138 3 gusting 6 0.6
2014-Apr-23 05:51 136 2 gusting 6 0.6
2014-Apr-23 05:41 114 2 gusting 4 0.6
2014-Apr-23 05:31 113 0.6
2014-Apr-23 05:21 113 0.6
2014-Apr-23 05:11 113 0.6
2014-Apr-23 05:01 113 -0.0
2014-Apr-23 04:51 113 2 gusting 3 -0.0
2014-Apr-23 04:41 113 3 gusting 4 -0.0
2014-Apr-23 04:32 113 -0.0
2014-Apr-23 04:21 113 0 gusting 3 -0.0
2014-Apr-23 04:11 113 -0.0
2014-Apr-23 04:01 113 3 gusting 4 -0.0
2014-Apr-23 03:51 113 1 gusting 2 -0.0
2014-Apr-23 03:41 113 3 gusting 4 -0.0
2014-Apr-23 03:31 113 3 gusting 4 -0.0
2014-Apr-23 03:21 113 0 gusting 1 -0.6
2014-Apr-23 03:11 113 1 gusting 2 -0.6
2014-Apr-23 03:01 113 -0.6
2014-Apr-23 02:51 113 -0.0
2014-Apr-23 02:41 113 -0.0
2014-Apr-23 02:31 113 -0.0
2014-Apr-23 02:21 113 -0.0
2014-Apr-23 02:11 113 1 gusting 3 -0.0
2014-Apr-23 02:01 113 0 gusting 7 -0.0
2014-Apr-23 01:51 113 4 gusting 6 0.6
2014-Apr-23 01:41 157 0 gusting 4 0.6
2014-Apr-23 01:31 102 1 gusting 4 0.6
2014-Apr-23 01:21 102 1 gusting 6 0.6
2014-Apr-23 01:11 090 3 gusting 8 0.6
2014-Apr-23 01:01 090 6 gusting 8 0.6
2014-Apr-23 00:51 130 5 gusting 8 0.6
2014-Apr-23 00:41 105 3 gusting 9 0.6
2014-Apr-23 00:31 076 2 gusting 7 0.6
2014-Apr-23 00:21 009 2 gusting 9 0.6
2014-Apr-23 00:11 117 2 gusting 9 1.1
2014-Apr-23 00:01 051 2 gusting 5 1.1
2014-Apr-22 23:51 021 3 gusting 6 1.7
2014-Apr-22 23:41 033 6 gusting 9 1.7
2014-Apr-22 23:31 041 6 gusting 9 1.7
2014-Apr-22 23:21 025 5 gusting 9 2.2
2014-Apr-22 23:11 327 4 gusting 7 1.7
2014-Apr-22 23:01 005 3 gusting 5 1.1
2014-Apr-22 22:51 048 1 gusting 2 0.6
2014-Apr-22 22:41 033 2 gusting 6 0.6
2014-Apr-22 22:31 033 5 gusting 6 1.1
2014-Apr-22 22:21 032 6 gusting 8 1.1
2014-Apr-22 22:11 036 6 gusting 7 1.1
2014-Apr-22 22:01 032 6 gusting 9 1.7
2014-Apr-22 21:51 048 7 gusting 10 1.7
2014-Apr-22 21:41 044 6 gusting 8 2.2
2014-Apr-22 21:31 021 6 gusting 9 2.8
2014-Apr-22 21:21 030 6 gusting 9 3.3
2014-Apr-22 21:11 041 6 gusting 7 5.0
2014-Apr-22 21:01 072 6 gusting 8 5.0
2014-Apr-22 20:51 086 5 gusting 8 5.0
2014-Apr-22 20:41 092 6 gusting 8 5.0
2014-Apr-22 20:31 101 4 gusting 9 3.9
2014-Apr-22 20:21 036 6 gusting 12 3.9
2014-Apr-22 20:11 049 8 gusting 13 3.3
2014-Apr-22 20:01 037 10 gusting 12 3.3
2014-Apr-22 19:51 052 7 gusting 10 3.3
2014-Apr-22 19:41 036 6 gusting 11 3.9
2014-Apr-22 19:31 043 9 gusting 9 5.6
2014-Apr-22 19:11 062 3 gusting 5 5.6
2014-Apr-22 19:01 062 3 gusting 4 5.0
2014-Apr-22 18:51 061 3 gusting 4 4.4
2014-Apr-22 18:41 062 3 gusting 4 5.0
2014-Apr-22 18:31 062 2 gusting 5 5.0
2014-Apr-22 18:21 063 4 gusting 5 4.4
2014-Apr-22 18:11 061 5 gusting 7 4.4
2014-Apr-22 18:01 067 6 gusting 8 4.4
2014-Apr-22 17:51 049 3 gusting 6 5.6
2014-Apr-22 17:41 071 3 gusting 5 5.0
2014-Apr-22 17:31 071 1 gusting 2 3.9
2014-Apr-22 17:21 071 1 gusting 4 3.3
2014-Apr-22 17:11 071 4 gusting 6 3.9
2014-Apr-22 17:01 062 4 gusting 6 4.4
2014-Apr-22 16:51 053 6 gusting 7 5.6
2014-Apr-22 16:41 049 3 gusting 7 5.6
2014-Apr-22 16:31 333 4 gusting 6 5.0
2014-Apr-22 16:21 013 3 gusting 9 4.4
2014-Apr-22 16:11 056 6 gusting 9 4.4
2014-Apr-22 16:01 061 6 gusting 6 4.4
2014-Apr-22 15:51 347 0 gusting 6 4.4
2014-Apr-22 15:41 341 4.4
2014-Apr-22 15:31 339 3 gusting 5 4.4
2014-Apr-22 15:21 052 2 gusting 4 4.4
2014-Apr-22 15:11 355 4 gusting 6 3.9
2014-Apr-22 15:01 005 3 gusting 6 4.4
2014-Apr-22 14:51 322 1 gusting 5 3.9
2014-Apr-22 14:41 311 1 gusting 7 3.9
2014-Apr-22 14:31 296 5 gusting 7 4.4
2014-Apr-22 14:21 291 3 gusting 7 4.4
2014-Apr-22 14:11 294 5 gusting 8 4.4
2014-Apr-22 14:01 318 4 gusting 11 4.4
2014-Apr-22 13:51 276 6 gusting 11 3.9
2014-Apr-22 13:41 266 6 gusting 13 3.9
2014-Apr-22 13:31 280 6 gusting 13 3.9
2014-Apr-22 13:21 281 8 gusting 12 4.4
2014-Apr-22 13:11 266 6 gusting 10 3.9
2014-Apr-22 13:01 300 6 gusting 11 4.4
2014-Apr-22 12:51 257 5 gusting 9 4.4
2014-Apr-22 12:41 287 3 gusting 7 3.9
2014-Apr-22 12:31 319 4 gusting 7 3.9
2014-Apr-22 12:21 321 1 gusting 6 3.9
2014-Apr-22 12:11 272 0 gusting 4 3.9
2014-Apr-22 12:01 271 0 gusting 6 3.9
2014-Apr-22 11:51 263 2 gusting 6 3.9
2014-Apr-22 11:41 241 4 gusting 8 3.3
2014-Apr-22 11:31 231 3 gusting 5 3.3
2014-Apr-22 11:21 229 2 gusting 8 2.8
2014-Apr-22 11:11 217 3 gusting 8 2.8
2014-Apr-22 11:01 227 5 gusting 10 2.8
2014-Apr-22 10:51 226 5 gusting 9 2.2
2014-Apr-22 10:41 235 4 gusting 6 1.7
2014-Apr-22 10:31 229 5 gusting 8 1.7
2014-Apr-22 10:21 217 3 gusting 8 1.7
2014-Apr-22 10:11 226 6 gusting 11 1.7
2014-Apr-22 10:01 227 6 gusting 14 2.2
2014-Apr-22 09:51 229 12 gusting 15 2.2
2014-Apr-22 09:41 210 5 gusting 14 2.2
2014-Apr-22 09:31 234 10 gusting 13 2.2
2014-Apr-22 09:21 240 5 gusting 14 2.2
2014-Apr-22 09:11 223 6 gusting 13 2.2
2014-Apr-22 09:01 248 5 gusting 10 2.2
2014-Apr-22 08:51 240 9 gusting 13 2.2
2014-Apr-22 08:41 215 3 gusting 12 2.2
2014-Apr-22 08:31 250 5 gusting 10 2.2
2014-Apr-22 08:21 239 3 gusting 7 1.7
2014-Apr-22 08:11 263 3 gusting 7 1.7
2014-Apr-22 08:01 241 2 gusting 5 1.7
2014-Apr-22 07:51 242 3 gusting 7 1.7
2014-Apr-22 07:41 231 5 gusting 8 1.7
2014-Apr-22 07:31 232 5 gusting 8 1.7
2014-Apr-22 07:21 236 4 gusting 8 1.7
2014-Apr-22 07:11 259 5 gusting 8 1.7
2014-Apr-22 07:01 236 5 gusting 12 1.7
2014-Apr-22 06:51 240 5 gusting 10 1.7
2014-Apr-22 06:41 234 5 gusting 10 1.7
2014-Apr-22 06:31 229 6 gusting 9 1.7
2014-Apr-22 06:21 226 6 gusting 13 1.7
2014-Apr-22 06:11 221 6 gusting 10 1.7
2014-Apr-22 06:01 236 5 gusting 8 1.7
2014-Apr-22 05:51 231 6 gusting 9 1.7
2014-Apr-22 05:41 235 4 gusting 7 1.7
2014-Apr-22 05:31 239 5 gusting 7 1.7
2014-Apr-22 05:21 242 3 gusting 6 1.7
2014-Apr-22 05:11 246 4 gusting 6 1.7
2014-Apr-22 05:01 241 2 gusting 7 1.7
2014-Apr-22 04:51 245 3 gusting 6 1.7
2014-Apr-22 04:41 246 2 gusting 8 1.7
2014-Apr-22 04:31 226 6 gusting 11 1.7
2014-Apr-22 04:21 236 5 gusting 9 1.7
2014-Apr-22 04:11 234 3 gusting 9 1.7
2014-Apr-22 04:01 242 5 gusting 7 1.7
2014-Apr-22 03:51 254 3 gusting 6 1.7
2014-Apr-22 03:41 259 4 gusting 6 1.7
2014-Apr-22 03:31 252 2 gusting 6 1.7
2014-Apr-22 03:21 232 3 gusting 7 1.7
2014-Apr-22 03:11 242 4 gusting 9 1.7
2014-Apr-22 03:01 246 4 gusting 7 1.7
2014-Apr-22 02:51 248 3 gusting 7 1.1
2014-Apr-22 02:41 236 3 gusting 6 1.1
2014-Apr-22 02:31 246 4 gusting 8 1.1
2014-Apr-22 02:21 240 6 gusting 8 1.1
2014-Apr-22 02:11 240 4 gusting 6 1.1
2014-Apr-22 02:01 228 4 gusting 7 1.1
2014-Apr-22 01:51 246 3 gusting 6 1.1
2014-Apr-22 01:41 239 4 gusting 8 1.1
2014-Apr-22 01:31 234 5 gusting 9 1.7
2014-Apr-22 01:21 234 4 gusting 10 1.7
2014-Apr-22 01:11 241 4 gusting 8 1.7
2014-Apr-22 01:01 241 4 gusting 9 2.2
2014-Apr-22 00:51 236 5 gusting 7 2.2
2014-Apr-22 00:41 248 5 gusting 10 2.2
2014-Apr-22 00:31 250 4 gusting 8 2.8
2014-Apr-22 00:21 246 6 gusting 13 2.8
2014-Apr-22 00:11 232 5 gusting 10 2.8
2014-Apr-22 00:01 256 6 gusting 10 2.8
2014-Apr-21 23:51 260 5 gusting 12 2.8
2014-Apr-21 23:41 244 8 gusting 13 3.3
2014-Apr-21 23:31 209 6 gusting 12 3.3
2014-Apr-21 23:21 250 6 gusting 12 3.3
2014-Apr-21 23:11 236 6 gusting 13 3.3
2014-Apr-21 23:01 229 6 gusting 13 3.3
2014-Apr-21 22:51 250 9 gusting 13 3.9
2014-Apr-21 22:41 249 11 gusting 15 3.9
2014-Apr-21 22:31 241 6 gusting 14 3.9
2014-Apr-21 22:21 223 10 gusting 18 3.9
2014-Apr-21 22:11 223 11 gusting 18 4.4
2014-Apr-21 22:01 258 10 gusting 20 4.4
2014-Apr-21 21:51 248 9 gusting 18 5.0
2014-Apr-21 21:41 219 10 gusting 18 5.0
2014-Apr-21 21:31 225 10 gusting 19 5.0
2014-Apr-21 21:21 259 8 gusting 21 5.0
2014-Apr-21 21:11 238 11 gusting 21 5.6
2014-Apr-21 21:01 267 13 gusting 23 5.6
2014-Apr-21 20:51 254 10 gusting 20 6.1
2014-Apr-21 20:41 261 11 gusting 23 6.7
2014-Apr-21 20:31 261 12 gusting 23 6.7
2014-Apr-21 20:21 264 14 gusting 22 7.2
2014-Apr-21 20:11 242 11 gusting 19 7.2
2014-Apr-21 20:01 247 12 gusting 21 7.8
2014-Apr-21 19:51 254 12 gusting 21 7.8
2014-Apr-21 19:41 259 10 gusting 22 7.8
2014-Apr-21 19:31 245 12 gusting 21 7.8
2014-Apr-21 19:21 268 10 gusting 21 7.8
2014-Apr-21 19:11 279 13 gusting 22 7.8
2014-Apr-21 19:01 248 11 gusting 22 7.8
2014-Apr-21 18:51 249 11 gusting 22 7.8
2014-Apr-21 18:41 227 14 gusting 19 7.8
2014-Apr-21 18:31 235 12 gusting 19 7.8
2014-Apr-21 18:21 248 8 gusting 18 7.8
2014-Apr-21 18:11 250 12 gusting 16 7.8
2014-Apr-21 18:01 216 11 gusting 19 7.2
2014-Apr-21 17:51 254 9 gusting 15 7.8
2014-Apr-21 17:41 261 11 gusting 17 7.8
2014-Apr-21 17:31 211 11 gusting 17 7.8
2014-Apr-21 17:11 240 13 gusting 19 6.7
2014-Apr-21 17:01 252 12 gusting 19 6.7
2014-Apr-21 16:51 242 13 gusting 19 6.7
2014-Apr-21 16:41 234 10 gusting 18 6.7
2014-Apr-21 16:31 267 9 gusting 18 6.7
2014-Apr-21 16:21 236 9 gusting 18 6.1
2014-Apr-21 16:11 248 10 gusting 19 6.1
2014-Apr-21 16:01 252 7 gusting 15 6.7
2014-Apr-21 15:51 230 7 gusting 13 6.1
2014-Apr-21 15:41 279 8 gusting 13 6.1
2014-Apr-21 15:31 244 9 gusting 15 5.6
2014-Apr-21 15:21 277 5 gusting 16 5.6
2014-Apr-21 15:11 257 4 gusting 12 5.0
2014-Apr-21 15:01 269 4 gusting 11 4.4